#timestamp,LO_Frequency,Hit,StdDev 
1545663615.9,286047003.5,P
1545663635.7,286047002.6,N
1545663655.5,286047001.8,N
1545663675.4,286047001.3,N
1545663695.2,286047002.4,N
1545663715.1,286046999.7,N
1545663716.0,286046999.7,N
1545663735.8,286047001.9,N
1545663755.6,286047003.4,N
1545663775.5,286047002.4,N
1545663795.3,286047000.9,N
1545663815.1,286047001.0,N
1545663835.9,286047001.9,N
1545663855.7,286047002.7,N
1545663875.6,286047004.2,Y
1545663895.4,286047003.5,P
1545663915.2,286047003.6,P
1545663935.1,286047003.7,P
1545663936.0,286047003.7,Y
1545663955.8,286047000.0,P
1545663975.7,286046998.2,N
1545663995.5,286046997.2,N
1545664015.3,286046996.8,N
1545664035.2,286046997.4,N
1545664055.9,286046995.7,N
1545664075.7,286046995.0,N
1545664095.6,286046996.2,N
1545664115.4,286046995.2,N
1545664135.2,286046995.5,N
1545664155.1,286046993.3,N
1545664156.0,286046993.3,N
1545664175.8,286046994.4,N
1545664195.7,286046993.0,N
1545664215.5,286046996.1,N
1545664235.3,286046996.1,N
1545664255.2,286046997.2,N
1545664275.0,286046996.0,N
1545664275.9,286046996.0,N
1545664295.7,286046993.8,N
1545664315.6,286046993.3,N
1545664335.4,286046994.2,N
1545664355.3,286046994.1,N
1545664375.1,286046991.7,Y
1545664376.0,286046991.7,P
1545664395.8,286046997.9,N
1545664415.7,286046997.1,N
1545664435.5,286046997.0,N
1545664455.3,286046998.0,N
1545664475.2,286046996.6,N
1545664495.0,286046999.4,N
1545664495.9,286046999.4,N
1545664515.8,286046997.8,N
1545664535.6,286046997.4,N
1545664555.4,286046996.7,N
1545664575.3,286046996.6,N
1545664595.1,286046995.4,N
1545664615.8,286046996.5,N
1545664635.7,286047000.9,N
1545664655.5,286047001.4,N
1545664675.4,286047005.8,N
1545664695.2,286047001.9,N
1545664715.0,286047001.9,N
1545664715.9,286047001.9,N
1545664735.8,286046998.2,N
1545664755.6,286047000.6,N
1545664775.4,286046998.9,N
1545664795.3,286046998.3,N
1545664815.1,286046997.4,N
1545664835.9,286046994.9,N
1545664855.7,286046999.8,N
1545664875.5,286047002.6,N
1545664895.4,286047000.2,N
1545664915.2,286046996.5,N
1545664935.0,286046997.3,N
1545664935.9,286046997.3,N
1545664955.8,286046999.4,N
1545664975.6,286046998.4,N
1545664995.4,286047002.1,N
1545665015.3,286047000.1,N
1545665035.1,286046999.7,N
1545665055.9,286047003.8,N
1545665075.7,286047001.4,N
1545665095.5,286047001.1,N
1545665115.4,286047000.3,N
1545665135.2,286047001.2,N
1545665155.0,286046996.9,N
1545665155.9,286046996.9,N
1545665175.8,286046997.4,N
1545665195.6,286047000.6,N
1545665215.5,286046999.7,N
1545665235.3,286046999.9,N
1545665255.1,286047002.0,N
1545665275.9,286047002.5,N
1545665295.7,286047000.1,N
1545665315.5,286046999.8,N
1545665335.4,286047000.2,N
1545665355.2,286047000.3,N
1545665375.0,286047002.8,N
1545665376.0,286047002.8,N
1545665395.8,286046998.4,N
1545665415.6,286046999.1,N
1545665435.5,286046999.7,N
1545665455.3,286047001.1,N
1545665475.1,286046998.2,N
1545665495.9,286047001.1,N
1545665515.7,286047000.5,N
1545665535.5,286047001.1,N
1545665555.4,286047001.1,N
1545665575.2,286046999.9,N
1545665595.1,286046999.9,N
1545665596.0,286046999.9,N
1545665615.8,286047002.5,N
1545665635.6,286047002.4,N
1545665655.5,286046999.8,N
1545665675.3,286046998.2,N
1545665695.1,286047002.7,N
1545665715.9,286047005.8,Y
1545665735.7,286047005.5,P
1545665755.6,286047005.4,N
1545665775.4,286047005.5,N
1545665795.2,286047004.0,N
1545665815.1,286047002.1,N
1545665816.0,286047002.1,N
1545665835.8,286047004.1,N
1545665855.6,286047002.1,N
1545665875.5,286047000.0,N
1545665895.3,286047002.5,N
1545665915.2,286046998.2,N
1545665935.9,286047000.8,N
1545665955.7,286046998.2,N
1545665975.6,286046998.9,N
1545665995.4,286046998.3,N
1545666015.2,286047001.0,N
1545666035.1,286047000.0,N
1545666036.0,286047000.0,N
1545666055.8,286047000.2,N
1545666075.7,286047000.0,N
1545666095.5,286047000.6,N
1545666115.3,286046998.9,N
1545666135.2,286046999.2,N
1545666155.0,286047000.3,N
1545666155.9,286047000.3,N
1545666175.8,286047001.8,N
1545666195.6,286047000.6,N
1545666215.4,286047001.1,N
1545666235.3,286046998.4,N
1545666255.1,286046998.5,N
1545666275.8,286047002.3,N
1545666295.7,286047002.2,N
1545666315.5,286047004.4,N
1545666335.4,286047004.3,N
1545666355.2,286047003.1,N
1545666375.0,286047005.9,Y
1545666375.9,286047005.9,P
1545666395.8,286047004.2,N
1545666415.6,286046999.8,N
1545666435.5,286047000.2,N
1545666455.3,286046999.9,N
1545666475.1,286047001.4,N
1545666495.9,286047001.9,N
1545666515.7,286047000.1,N
1545666535.5,286047004.0,N
1545666555.4,286047000.9,N
1545666575.2,286047000.8,N
1545666595.1,286047000.0,N
1545666596.0,286047000.0,N
1545666615.8,286047001.4,N
1545666635.6,286047003.2,N
1545666655.5,286047005.4,Y
1545666675.3,286047001.0,P
1545666695.2,286046996.7,P
1545666715.9,286046999.5,N
1545666735.7,286046999.5,N
1545666755.6,286046996.9,N
1545666775.4,286046999.6,N
1545666795.2,286046999.1,N
1545666815.1,286046998.5,N
1545666816.0,286046998.5,N
1545666835.8,286047000.2,N
1545666855.7,286047002.3,N
1545666875.5,286047000.0,N
1545666895.3,286047000.7,N
1545666915.2,286047000.8,N
1545666935.0,286047000.9,N
1545666935.9,286047000.9,N
1545666955.8,286046999.1,N
1545666975.6,286046997.3,N
1545666995.4,286046997.0,N
1545667015.3,286046998.9,N
1545667035.1,286046999.5,N
1545667055.9,286046995.6,N
1545667075.7,286046994.0,Y
1545667095.5,286047002.4,P
1545667115.4,286047001.8,N
1545667135.2,286047002.0,N
1545667155.0,286047001.0,N
1545667156.0,286047001.0,N
1545667175.8,286046998.9,N
1545667195.6,286046998.9,N
